Date String (YYYY-MM-DD hh:mm:ss) UTC,Instrument flags,Ambient pressure (hPa),Sample flow (lpm),Bypass flow (lpm),Sample temperature (°C),Ambient temperature (°C),ASC tube jacket temperature (°C),LED temperature (°C),Box temperature (°C),Sample RH (%),Span deviation,Mass concentration (μg/m³),Mass concentration (μg/m³),Mass concentration (μg/m³)
DateTimeUTC,F1_M11,P_M11,Q1_M11,Q2_M11,T1_M11,T2_M11,T3_M11,T4_M11,T5_M11,U1_M11,ZSPAN_M11,X0_M11,X2_M11,X1_M11
2021-11-25 22:00:00,,0832.1,5.00,0.00,28.1,27.0,00.0,37.1,29.9,05.4,0000.0,0002.42,0001.03,0000.72
2021-11-25 22:01:00,,0832.1,5.01,0.00,28.1,27.1,00.0,37.1,29.8,05.5,0000.0,0002.47,0001.00,0000.71
2021-11-25 22:02:00,,0832.0,5.00,0.00,28.1,27.0,00.0,37.1,29.8,05.5,0000.0,0002.98,0001.01,0000.70
2021-11-25 22:03:00,,0832.1,4.99,0.00,28.1,27.1,00.0,37.1,29.8,05.5,0000.0,0002.99,0001.02,0000.70
2021-11-25 22:04:00,,0832.1,5.01,0.00,28.1,27.1,00.0,37.1,29.8,05.5,0000.0,0002.77,0001.03,0000.70
2021-11-25 22:05:00,,0832.1,5.00,0.00,28.1,27.2,00.0,37.1,29.9,05.4,0000.0,0002.51,0000.98,0000.69
2021-11-25 22:06:00,,0832.2,4.99,0.00,28.1,27.2,00.0,37.1,29.9,05.4,0000.0,0002.51,0000.98,0000.69
2021-11-25 22:07:00,,0832.1,5.01,0.00,28.1,27.2,00.0,37.1,29.9,05.4,0000.0,0002.55,0001.00,0000.70
2021-11-25 22:08:00,,0832.1,5.00,0.00,28.1,27.2,00.0,37.1,29.9,05.4,0000.0,0002.46,0000.97,0000.69
2021-11-25 22:09:00,,0832.1,4.98,0.00,28.2,27.3,00.0,37.1,29.9,05.4,0000.0,0002.42,0000.96,0000.69
2021-11-25 22:10:00,,0832.1,5.01,0.00,28.2,27.3,00.0,37.1,29.9,05.4,0000.0,0001.97,0000.92,0000.69
2021-11-25 22:11:00,,0832.1,5.00,0.00,28.1,27.2,00.0,37.1,29.9,05.4,0000.0,0002.08,0000.95,0000.70
2021-11-25 22:12:00,,0832.1,4.99,0.00,28.2,27.3,00.0,37.1,29.9,05.5,0000.0,0002.05,0000.98,0000.71
2021-11-25 22:13:00,,0832.1,4.99,0.00,28.2,27.3,00.0,37.1,29.9,05.5,0000.0,0001.55,0000.96,0000.70
2021-11-25 22:14:00,,0832.1,5.01,0.00,28.2,27.3,00.0,37.1,29.9,05.5,0000.0,0001.56,0000.95,0000.71
2021-11-25 22:15:00,,0832.1,4.99,0.00,28.2,27.3,00.0,37.1,29.9,05.5,0000.0,0001.65,0000.96,0000.70
2021-11-25 22:16:00,,0832.1,5.00,0.00,28.2,27.3,00.0,37.1,30.0,05.5,0000.0,0001.78,0000.94,0000.70
2021-11-25 22:17:00,,0832.1,5.01,0.00,28.2,27.3,00.0,37.1,30.0,05.5,0000.0,0001.79,0000.95,0000.71
2021-11-25 22:18:00,,0832.2,4.99,0.00,28.2,27.4,00.0,37.1,30.0,05.5,0000.0,0001.72,0000.93,0000.70
2021-11-25 22:19:00,,0832.1,5.01,0.00,28.2,27.4,00.0,37.1,30.0,05.6,0000.0,0001.73,0000.92,0000.70
2021-11-25 22:20:00,,0832.1,4.99,0.00,28.2,27.4,00.0,37.2,30.0,05.7,0000.0,0001.85,0000.92,0000.70
2021-11-25 22:21:00,,0832.1,5.00,0.00,28.2,27.4,00.0,37.2,30.0,05.7,0000.0,0001.87,0000.93,0000.68
2021-11-25 22:22:00,,0832.1,5.00,0.00,28.2,27.4,00.0,37.2,30.0,05.6,0000.0,0001.74,0000.90,0000.68
2021-11-25 22:23:00,,0832.0,5.00,0.00,28.3,27.4,00.0,37.2,30.0,05.7,0000.0,0002.97,0000.88,0000.67
2021-11-25 22:24:00,,0832.0,4.99,0.00,28.3,27.4,00.0,37.2,30.0,05.7,0000.0,0003.01,0000.86,0000.66
2021-11-25 22:25:00,,0831.9,5.00,0.00,28.3,27.4,00.0,37.2,30.1,05.7,0000.0,0003.12,0000.89,0000.65
2021-11-25 22:26:00,,0832.0,5.00,0.00,28.3,27.5,00.0,37.2,30.0,05.8,0000.0,0003.14,0000.91,0000.65
2021-11-25 22:27:00,,0832.0,5.03,0.00,28.3,27.5,00.0,37.2,30.0,05.8,0000.0,0003.18,0000.92,0000.65
2021-11-25 22:28:00,,0831.9,4.99,0.00,28.3,27.5,00.0,37.2,30.1,05.9,0000.0,0004.87,0000.93,0000.63
2021-11-25 22:29:00,,0832.0,4.99,0.00,28.3,27.5,00.0,37.2,30.1,05.8,0000.0,0005.03,0000.93,0000.63
2021-11-25 22:30:00,,0832.0,5.00,0.00,28.3,27.5,00.0,37.2,30.1,05.8,0000.0,0005.01,0000.92,0000.62
2021-11-25 22:31:00,,0832.0,5.01,0.00,28.3,27.5,00.0,37.2,30.1,05.8,0000.0,0004.85,0000.90,0000.62
2021-11-25 22:32:00,,0831.9,5.00,0.00,28.3,27.6,00.0,37.3,30.1,05.8,0000.0,0004.82,0000.89,0000.62
2021-11-25 22:33:00,,0832.0,5.01,0.00,28.4,27.6,00.0,37.3,30.1,05.8,0000.0,0004.85,0000.90,0000.62
2021-11-25 22:34:00,,0832.0,4.99,0.00,28.4,27.6,00.0,37.3,30.1,05.8,0000.0,0003.51,0000.89,0000.62
2021-11-25 22:35:00,,0832.0,4.99,0.00,28.4,27.6,00.0,37.3,30.1,05.8,0000.0,0003.45,0000.89,0000.62
2021-11-25 22:36:00,,0832.0,5.01,0.00,28.4,27.6,00.0,37.3,30.2,05.7,0000.0,0003.43,0000.89,0000.62
2021-11-25 22:37:00,,0832.1,5.01,0.00,28.4,27.6,00.0,37.3,30.2,05.7,0000.0,0003.33,0000.86,0000.62
2021-11-25 22:38:00,,0832.1,5.00,0.00,28.4,27.6,00.0,37.3,30.1,05.7,0000.0,0003.32,0000.88,0000.63
2021-11-25 22:39:00,,0832.0,4.99,0.00,28.3,27.5,00.0,37.3,30.1,05.8,0000.0,0001.58,0000.87,0000.63
2021-11-25 22:40:00,,0831.9,5.01,0.00,28.3,27.5,00.0,37.3,30.1,05.8,0000.0,0001.43,0000.87,0000.62
2021-11-25 22:41:00,,0831.9,5.01,0.00,28.3,27.5,00.0,37.3,30.1,05.8,0000.0,0001.43,0000.87,0000.61
2021-11-25 22:42:00,,0831.9,4.99,0.00,28.3,27.6,00.0,37.3,30.1,05.8,0000.0,0001.47,0000.88,0000.61
2021-11-25 22:43:00,,0831.8,5.01,0.00,28.3,27.6,00.0,37.3,30.1,05.8,0000.0,0001.56,0000.93,0000.62
2021-11-25 22:44:00,,0831.8,4.99,0.00,28.3,27.5,00.0,37.3,30.1,05.8,0000.0,0001.54,0000.93,0000.61
2021-11-25 22:45:00,,0831.7,5.01,0.00,28.4,27.6,00.0,37.3,30.1,05.8,0000.0,0001.59,0000.95,0000.62
2021-11-25 22:46:00,,0831.7,5.00,0.00,28.3,27.6,00.0,37.3,30.1,05.8,0000.0,0001.56,0000.94,0000.62
2021-11-25 22:47:00,,0831.7,4.98,0.00,28.3,27.5,00.0,37.3,30.1,05.8,0000.0,0001.51,0000.93,0000.63
2021-11-25 22:48:00,,0831.7,5.02,0.00,28.3,27.5,00.0,37.3,30.1,05.9,0000.0,0001.57,0000.93,0000.63
2021-11-25 22:49:00,,0831.7,4.99,0.00,28.3,27.5,00.0,37.3,30.1,05.9,0000.0,0001.61,0000.92,0000.63
2021-11-25 22:50:00,,0831.7,5.00,0.00,28.3,27.5,00.0,37.3,30.1,05.9,0000.0,0001.63,0000.92,0000.63
2021-11-25 22:51:00,,0831.7,4.99,0.00,28.3,27.5,00.0,37.3,30.1,05.9,0000.0,0001.68,0000.96,0000.63
2021-11-25 22:52:00,,0831.7,5.02,0.00,28.3,27.6,00.0,37.3,30.1,05.9,0000.0,0001.68,0000.95,0000.64
2021-11-25 22:53:00,,0831.7,4.99,0.00,28.3,27.6,00.0,37.3,30.1,05.9,0000.0,0002.57,0000.98,0000.65
2021-11-25 22:54:00,,0831.7,5.01,0.00,28.4,27.6,00.0,37.3,30.1,05.9,0000.0,0002.46,0000.92,0000.64
2021-11-25 22:55:00,,0831.6,4.99,0.00,28.4,27.6,00.0,37.3,30.1,05.9,0000.0,0002.39,0000.90,0000.64
2021-11-25 22:56:00,,0831.6,5.00,0.00,28.4,27.6,00.0,37.3,30.1,05.9,0000.0,0002.41,0000.90,0000.64
2021-11-25 22:57:00,,0831.6,5.01,0.00,28.4,27.6,00.0,37.3,30.2,05.9,0000.0,0002.53,0000.93,0000.63
2021-11-25 22:58:00,,0831.6,5.01,0.00,28.4,27.6,00.0,37.4,30.2,05.9,0000.0,0002.53,0000.92,0000.63
2021-11-25 22:59:00,,0831.6,4.98,0.00,28.4,27.7,00.0,37.4,30.2,05.9,0000.0,0002.41,0000.89,0000.62
